Location: Columbia
(38.9520°N, 92.3340°W)
Time: 05:43:02
(UTC-05:00)

CZ-2C R/B - Visible Passes

Search period start: 29 July 2014 00:00
Search period end: 08 August 2014 00:00
Orbit: 704 x 911 km, 98.1° (Epoch: 28 July)

Date Brightness Start Highest point End Pass type
(mag) Time Alt. Az. Time Alt. Az. Time Alt. Az.
29 Jul 5.5 03:10:34 10° ESE 03:13:51 18° ENE 03:17:04 10° NNE visible
29 Jul 3.1 04:48:27 10° S 04:53:24 50° W 04:58:09 10° NNW visible
30 Jul 6.0 02:49:12 10° ENE 02:49:40 10° ENE 02:50:08 10° NE visible
30 Jul 2.9 04:23:48 10° SSE 04:28:54 88° WSW 04:33:47 10° NNW visible
31 Jul 3.6 03:59:33 10° SSE 04:04:27 53° ENE 04:09:10 10° N visible
01 Aug 4.6 03:35:44 10° SE 03:40:04 31° ENE 03:44:17 10° N visible
01 Aug 3.9 05:15:45 10° SSW 05:19:57 26° W 05:24:02 10° NW visible
02 Aug 5.4 03:12:27 10° ESE 03:15:47 19° ENE 03:19:03 10° NNE visible
02 Aug 3.2 04:50:38 10° S 04:55:22 46° W 05:00:00 10° NNW visible
03 Aug 5.9 02:50:35 10° ENE 02:51:35 11° ENE 02:52:34 10° NE visible
03 Aug 2.8 04:26:03 11° S 04:30:50 82° WSW 04:35:39 10° NNW visible
04 Aug 3.5 04:01:33 10° SSE 04:06:23 57° ENE 04:11:04 10° N visible
05 Aug 4.5 03:37:40 10° SE 03:42:00 32° ENE 03:46:14 10° N visible
05 Aug 4.0 05:17:57 10° SSW 05:21:55 24° W 05:25:48 10° NW visible
06 Aug 5.3 03:14:18 10° ESE 03:17:42 19° ENE 03:21:02 10° NNE visible
06 Aug 3.2 04:53:21 14° SSW 04:57:18 42° W 05:01:51 10° NNW visible
07 Aug 5.8 02:52:07 10° ENE 02:53:29 11° ENE 02:54:50 10° NE visible
07 Aug 2.7 04:28:44 15° S 04:32:46 77° WSW 04:37:32 10° NNW visible
